CCA917 ZJHK-ZJYX

Flight info

Callsign CCA917
Flight time N/A
Altitude 17000
Route NYB G221 SAGSU J199 DBA
Aircraft A320/M-SDE3FGHIRWY/LB1

Departure

Time 2026-04-20 12:29
Airport Haikou Meilan International Airport (ZJHK)

Arrival

Time N/A
Airport ZJYX
Time Latitude Longitude Altitude Speed Heading
2026-04-20 12:04 19.93995 110.45850 67 ft 0 kts
2026-04-20 12:16 19.93982 110.45850 46 ft 4 kts
2026-04-20 12:16 19.93955 110.45850 66 ft 4 kts
2026-04-20 12:16 19.93927 110.45850 72 ft 4 kts
2026-04-20 12:16 19.93903 110.45851 69 ft 4 kts 323°
2026-04-20 12:17 19.93895 110.45866 75 ft 2 kts 270°
2026-04-20 12:17 19.93895 110.45892 75 ft 2 kts 270°
2026-04-20 12:17 19.93895 110.45894 75 ft 0 kts 270°
2026-04-20 12:20 19.93895 110.45863 75 ft 8 kts 270°
2026-04-20 12:20 19.93890 110.45793 74 ft 9 kts 244°
2026-04-20 12:20 19.93843 110.45779 73 ft 6 kts 179°
2026-04-20 12:20 19.93796 110.45780 84 ft 9 kts 180°
2026-04-20 12:21 19.93739 110.45767 83 ft 7 kts 226°
2026-04-20 12:21 19.93731 110.45721 79 ft 6 kts 270°
2026-04-20 12:21 19.93730 110.45667 80 ft 9 kts 268°
2026-04-20 12:21 19.93729 110.45587 80 ft 13 kts 270°
2026-04-20 12:22 19.93730 110.45493 80 ft 12 kts 269°
2026-04-20 12:22 19.93730 110.45412 80 ft 10 kts 269°
2026-04-20 12:22 19.93729 110.45319 81 ft 15 kts 269°
2026-04-20 12:22 19.93729 110.45264 81 ft 4 kts 271°
2026-04-20 12:23 19.93730 110.45240 81 ft 3 kts 271°
2026-04-20 12:23 19.93730 110.45183 81 ft 12 kts 270°
2026-04-20 12:23 19.93733 110.45104 81 ft 9 kts 289°
2026-04-20 12:23 19.93785 110.45084 84 ft 8 kts 358°
2026-04-20 12:24 19.93858 110.45083 80 ft 13 kts
2026-04-20 12:24 19.93969 110.45082 71 ft 19 kts 359°
2026-04-20 12:24 19.94115 110.45082 71 ft 23 kts
2026-04-20 12:24 19.94285 110.45081 69 ft 26 kts 359°
2026-04-20 12:25 19.94477 110.45080 59 ft 29 kts 360°
2026-04-20 12:25 19.94666 110.45080 56 ft 28 kts 359°
2026-04-20 12:25 19.94861 110.45078 52 ft 27 kts 360°
2026-04-20 12:25 19.95045 110.45078 54 ft 26 kts 360°
2026-04-20 12:26 19.95152 110.45077 53 ft 9 kts 360°
2026-04-20 12:26 19.95200 110.45047 52 ft 8 kts 289°
2026-04-20 12:26 19.95202 110.44989 52 ft 7 kts 269°
2026-04-20 12:26 19.95202 110.44931 52 ft 10 kts 270°
2026-04-20 12:27 19.95202 110.44854 52 ft 10 kts 275°
2026-04-20 12:27 19.95253 110.44820 51 ft 10 kts 357°
2026-04-20 12:27 19.95326 110.44830 49 ft 11 kts 17°
2026-04-20 12:27 19.95372 110.44881 47 ft 9 kts 69°
2026-04-20 12:28 19.95373 110.44942 51 ft 12 kts 91°
2026-04-20 12:28 19.95373 110.45220 53 ft 73 kts 90°
2026-04-20 12:28 19.95375 110.45985 58 ft 132 kts 90°
2026-04-20 12:28 19.95379 110.47124 194 ft 165 kts 91°
2026-04-20 12:29 19.95382 110.48275 989 ft 154 kts 95°
2026-04-20 12:29 19.95657 110.49397 1648 ft 166 kts 60°
2026-04-20 12:29 19.96592 110.50147 2263 ft 178 kts 15°
2026-04-20 12:29 19.97813 110.50045 2816 ft 179 kts 334°
2026-04-20 12:30 19.98947 110.49531 3355 ft 182 kts 334°
2026-04-20 12:30 20.00177 110.48971 3647 ft 203 kts 334°
2026-04-20 12:30 20.01550 110.48348 3876 ft 227 kts 335°
2026-04-20 12:30 20.03083 110.47660 4190 ft 251 kts 335°
2026-04-20 12:31 20.04722 110.46932 4882 ft 258 kts 335°
2026-04-20 12:31 20.06394 110.46192 5684 ft 262 kts 334°
2026-04-20 12:31 20.08086 110.45444 6475 ft 265 kts 335°
2026-04-20 12:31 20.09793 110.44690 7272 ft 267 kts 335°
2026-04-20 12:32 20.11522 110.43925 8036 ft 271 kts 335°
2026-04-20 12:32 20.13275 110.43149 8797 ft 275 kts 335°
2026-04-20 12:32 20.15048 110.42357 9520 ft 280 kts 333°
2026-04-20 12:32 20.16668 110.41117 9889 ft 293 kts 307°
2026-04-20 12:33 20.17669 110.39203 10237 ft 306 kts 283°
2026-04-20 12:33 20.17751 110.36896 10442 ft 324 kts 255°
2026-04-20 12:33 20.16744 110.34707 10597 ft 343 kts 229°
2026-04-20 12:33 20.14854 110.33049 10722 ft 363 kts 214°
2026-04-20 12:34 20.12671 110.31589 11078 ft 375 kts 211°
2026-04-20 12:34 20.10421 110.30219 11641 ft 380 kts 210°
2026-04-20 12:34 20.08101 110.28849 12251 ft 383 kts 210°
2026-04-20 12:34 20.05728 110.27439 12856 ft 387 kts 210°
2026-04-20 12:35 20.03414 110.26037 13453 ft 390 kts 211°
2026-04-20 12:35 20.01058 110.24579 13977 ft 393 kts 212°
2026-04-20 12:35 19.98697 110.23094 14493 ft 397 kts 212°
2026-04-20 12:35 19.96317 110.21587 14984 ft 400 kts 212°
2026-04-20 12:36 19.93915 110.20061 15468 ft 403 kts 213°
2026-04-20 12:36 19.91494 110.18524 15938 ft 407 kts 213°
2026-04-20 12:36 19.89071 110.16961 16389 ft 409 kts 216°
2026-04-20 12:36 19.86683 110.15299 16557 ft 412 kts 211°
2026-04-20 12:37 19.84013 110.14163 16591 ft 417 kts 196°
2026-04-20 12:37 19.81115 110.13837 16600 ft 421 kts 184°
2026-04-20 12:37 19.78185 110.13790 16598 ft 421 kts 183°
2026-04-20 12:37 19.75250 110.13771 16598 ft 422 kts 182°
2026-04-20 12:38 19.72316 110.13766 16598 ft 422 kts 182°
2026-04-20 12:38 19.69385 110.13762 16597 ft 422 kts 183°
2026-04-20 12:38 19.66453 110.13752 16598 ft 422 kts 183°
2026-04-20 12:38 19.63512 110.13739 16598 ft 422 kts 183°
2026-04-20 12:39 19.57647 110.13704 16598 ft 421 kts 182°
2026-04-20 12:39 19.54719 110.13680 16604 ft 422 kts 182°
2026-04-20 12:39 19.51787 110.13655 16605 ft 421 kts 182°
2026-04-20 12:40 19.48856 110.13631 16609 ft 421 kts 184°
2026-04-20 12:40 19.46911 110.13609 16595 ft 420 kts 184°
2026-04-20 12:40 19.43039 110.13564 16605 ft 421 kts 183°
2026-04-20 12:40 19.41053 110.13548 16606 ft 421 kts 183°
2026-04-20 12:41 19.37169 110.13527 16605 ft 421 kts 182°
2026-04-20 12:41 19.34239 110.13515 16608 ft 421 kts 182°
2026-04-20 12:41 19.31308 110.13501 16603 ft 421 kts 182°
2026-04-20 12:41 19.28373 110.13485 16609 ft 422 kts 182°
2026-04-20 12:42 19.26381 110.13474 16613 ft 423 kts 182°
2026-04-20 12:42 19.22490 110.13449 16614 ft 423 kts 182°
2026-04-20 12:42 19.20500 110.13433 16612 ft 423 kts 182°
2026-04-20 12:42 19.17553 110.13410 16621 ft 423 kts 182°
2026-04-20 12:43 19.14612 110.13390 16622 ft 423 kts 182°
2026-04-20 12:43 19.11714 110.13371 16616 ft 423 kts 182°
2026-04-20 12:43 19.08732 110.13353 16619 ft 423 kts 182°
2026-04-20 12:43 19.05831 110.13333 16626 ft 422 kts 182°
2026-04-20 12:44 19.02887 110.13310 16625 ft 422 kts 182°
2026-04-20 12:44 18.99953 110.13288 16622 ft 422 kts 182°
2026-04-20 12:44 18.97017 110.13269 16623 ft 422 kts 182°
2026-04-20 12:44 18.94074 110.13248 16622 ft 422 kts 182°
2026-04-20 12:45 18.91134 110.13226 16622 ft 423 kts 182°
2026-04-20 12:45 18.88197 110.13206 16624 ft 423 kts 182°
2026-04-20 12:45 18.85256 110.13187 16623 ft 423 kts 182°
2026-04-20 12:45 18.82308 110.13168 16623 ft 423 kts 182°
2026-04-20 12:46 18.79370 110.13150 16630 ft 423 kts 182°
2026-04-20 12:46 18.76432 110.13129 16627 ft 423 kts 182°
2026-04-20 12:46 18.73484 110.13108 16627 ft 423 kts 182°
2026-04-20 12:46 18.70543 110.13086 16629 ft 423 kts 182°
2026-04-20 12:47 18.67600 110.13063 16624 ft 423 kts 182°
2026-04-20 12:47 18.64656 110.13041 16621 ft 423 kts 182°
2026-04-20 12:47 18.61712 110.13018 16624 ft 423 kts 182°
2026-04-20 12:47 18.58771 110.12996 16623 ft 423 kts 182°
2026-04-20 12:48 18.55831 110.12975 16629 ft 423 kts 182°
2026-04-20 12:48 18.52890 110.12956 16627 ft 423 kts 182°
2026-04-20 12:48 18.49947 110.12935 16626 ft 423 kts 182°
2026-04-20 12:48 18.47004 110.12914 16623 ft 423 kts 182°
2026-04-20 12:49 18.44104 110.12896 16625 ft 423 kts 182°
2026-04-20 12:49 18.41165 110.12878 16628 ft 423 kts 182°
2026-04-20 12:49 18.38228 110.12858 16624 ft 423 kts 182°
2026-04-20 12:49 18.35285 110.12838 16626 ft 423 kts 182°
2026-04-20 12:50 18.32340 110.12820 16628 ft 423 kts 182°
2026-04-20 12:50 18.29393 110.12800 16628 ft 423 kts 182°
2026-04-20 12:50 18.26447 110.12778 16630 ft 423 kts 182°
2026-04-20 12:50 18.23508 110.12754 16630 ft 423 kts 182°
2026-04-20 12:51 18.20556 110.12733 16630 ft 423 kts 182°
2026-04-20 12:51 18.17619 110.12713 16625 ft 423 kts 182°
2026-04-20 12:51 18.14675 110.12693 16625 ft 423 kts 182°
2026-04-20 12:51 18.11726 110.12673 16623 ft 423 kts 182°
2026-04-20 12:52 18.08771 110.12652 16864 ft 427 kts 182°
2026-04-20 12:52 18.05779 110.12632 16927 ft 436 kts 182°
2026-04-20 12:52 18.02708 110.12611 16924 ft 444 kts 182°
2026-04-20 12:52 17.99614 110.12590 16928 ft 446 kts 182°
2026-04-20 12:53 17.96513 110.12568 16933 ft 446 kts 182°
2026-04-20 12:53 17.93405 110.12545 16930 ft 446 kts 182°
2026-04-20 12:53 17.90302 110.12524 16931 ft 446 kts 182°
2026-04-20 12:53 17.87198 110.12504 16928 ft 446 kts 182°
2026-04-20 12:54 17.84097 110.12482 16926 ft 446 kts 182°
2026-04-20 12:54 17.80994 110.12459 16926 ft 446 kts 182°
2026-04-20 12:54 17.77888 110.12439 16926 ft 446 kts 182°
2026-04-20 12:54 17.74789 110.12416 16927 ft 446 kts 182°
2026-04-20 12:55 17.71684 110.12391 16931 ft 446 kts 182°
2026-04-20 12:55 17.68578 110.12368 16932 ft 446 kts 182°
2026-04-20 12:55 17.65473 110.12347 16933 ft 446 kts 182°
2026-04-20 12:55 17.62367 110.12326 16933 ft 446 kts 182°
2026-04-20 12:56 17.59258 110.12307 16933 ft 446 kts 182°
2026-04-20 12:56 17.56149 110.12286 16933 ft 446 kts 182°
2026-04-20 12:56 17.53044 110.12266 16933 ft 446 kts 182°
2026-04-20 12:56 17.49936 110.12246 16933 ft 446 kts 182°
2026-04-20 12:57 17.46876 110.12224 16931 ft 446 kts 182°
2026-04-20 12:57 17.43767 110.12202 16932 ft 446 kts 182°
2026-04-20 12:57 17.40663 110.12180 16933 ft 446 kts 182°
2026-04-20 12:57 17.37560 110.12359 16928 ft 448 kts 171°
2026-04-20 12:58 17.34577 110.13334 16930 ft 451 kts 156°
2026-04-20 12:58 17.31934 110.15117 16928 ft 454 kts 140°
2026-04-20 12:58 17.29828 110.17582 16926 ft 456 kts 124°
2026-04-20 12:58 17.28430 110.20554 16928 ft 457 kts 108°
2026-04-20 12:59 17.27683 110.23784 16928 ft 458 kts 102°
2026-04-20 12:59 17.27019 110.27045 16928 ft 458 kts 102°
2026-04-20 12:59 17.26361 110.30300 16925 ft 458 kts 102°
2026-04-20 12:59 17.25702 110.33560 16929 ft 458 kts 102°
2026-04-20 13:00 17.25040 110.36819 16930 ft 458 kts 102°
2026-04-20 13:00 17.24375 110.40080 16929 ft 458 kts 102°
2026-04-20 13:00 17.23706 110.43338 16931 ft 458 kts 102°
2026-04-20 13:00 17.23042 110.46556 16930 ft 458 kts 102°
2026-04-20 13:01 17.22370 110.49810 16932 ft 458 kts 102°
2026-04-20 13:01 17.21697 110.53059 16938 ft 458 kts 103°
2026-04-20 13:01 17.21025 110.56311 16938 ft 458 kts 102°
2026-04-20 13:01 17.20353 110.59571 16940 ft 457 kts 102°
2026-04-20 13:02 17.19684 110.62824 16939 ft 457 kts 102°
2026-04-20 13:02 17.19017 110.66075 16941 ft 457 kts 102°
2026-04-20 13:02 17.18346 110.69328 16940 ft 457 kts 103°
2026-04-20 13:02 17.17673 110.72577 16940 ft 457 kts 103°
2026-04-20 13:03 17.17000 110.75823 16936 ft 457 kts 102°
2026-04-20 13:03 17.16328 110.79064 16936 ft 457 kts 102°
2026-04-20 13:03 17.15663 110.82269 16934 ft 457 kts 103°
2026-04-20 13:03 17.14991 110.85505 16767 ft 455 kts 103°
2026-04-20 13:04 17.14321 110.88729 16398 ft 452 kts 103°
2026-04-20 13:04 17.13658 110.91930 16035 ft 449 kts 103°
2026-04-20 13:04 17.13002 110.95104 15677 ft 445 kts 103°
2026-04-20 13:04 17.12350 110.98259 15321 ft 443 kts 103°
2026-04-20 13:05 17.11698 111.01403 14969 ft 440 kts 103°
2026-04-20 13:05 17.11050 111.04513 14622 ft 437 kts 103°
2026-04-20 13:05 17.10403 111.07604 14312 ft 434 kts 103°
2026-04-20 13:05 17.09761 111.10673 14053 ft 431 kts 103°
2026-04-20 13:06 17.09122 111.13728 13781 ft 428 kts 102°
2026-04-20 13:06 17.08488 111.16762 13484 ft 426 kts 103°
2026-04-20 13:06 17.07856 111.19772 13183 ft 423 kts 103°
2026-04-20 13:06 17.07224 111.22770 12878 ft 421 kts 103°
2026-04-20 13:07 17.06597 111.25750 12572 ft 420 kts 103°
2026-04-20 13:07 17.05973 111.28725 12279 ft 418 kts 103°
2026-04-20 13:07 17.05353 111.31681 11989 ft 416 kts 103°
2026-04-20 13:07 17.04733 111.34630 11695 ft 415 kts 103°
2026-04-20 13:08 17.04115 111.37564 11407 ft 413 kts 103°
2026-04-20 13:08 17.03503 111.40458 11125 ft 401 kts 103°
2026-04-20 13:08 17.02921 111.43220 10892 ft 386 kts 103°
2026-04-20 13:08 17.02357 111.45908 10656 ft 369 kts 103°
2026-04-20 13:09 17.01823 111.48465 10422 ft 342 kts 103°
2026-04-20 13:09 17.01336 111.50780 10195 ft 321 kts 103°
2026-04-20 13:09 17.00869 111.52993 9971 ft 307 kts 103°
2026-04-20 13:09 17.00413 111.55145 9733 ft 301 kts 104°
2026-04-20 13:10 16.99962 111.57268 9478 ft 298 kts 104°
2026-04-20 13:10 16.99514 111.59377 9224 ft 296 kts 103°
2026-04-20 13:10 16.99070 111.61470 8979 ft 294 kts 103°
2026-04-20 13:10 16.98628 111.63548 8731 ft 292 kts 103°
2026-04-20 13:11 16.98190 111.65610 8487 ft 290 kts 103°
2026-04-20 13:11 16.97753 111.67663 8239 ft 288 kts 103°
2026-04-20 13:11 16.97322 111.69698 8002 ft 286 kts 103°
2026-04-20 13:11 16.96892 111.71728 7765 ft 285 kts 103°
2026-04-20 13:12 16.96467 111.73736 7524 ft 282 kts 103°
2026-04-20 13:12 16.96043 111.75732 7289 ft 281 kts 103°
2026-04-20 13:12 16.95626 111.77692 7056 ft 280 kts 103°
2026-04-20 13:12 16.95205 111.79669 6824 ft 278 kts 103°
2026-04-20 13:13 16.94786 111.81634 6591 ft 276 kts 103°
2026-04-20 13:13 16.94371 111.83587 6360 ft 275 kts 103°
2026-04-20 13:13 16.93957 111.85535 6117 ft 275 kts 103°
2026-04-20 13:13 16.93544 111.87472 5952 ft 272 kts 103°
2026-04-20 13:14 16.93134 111.89393 5910 ft 271 kts 103°
2026-04-20 13:14 16.92723 111.91320 5925 ft 272 kts 103°
2026-04-20 13:14 16.92312 111.93257 5923 ft 273 kts 103°
2026-04-20 13:14 16.91898 111.95191 5929 ft 273 kts 105°
2026-04-20 13:15 16.91206 111.97020 5929 ft 270 kts 121°
2026-04-20 13:15 16.90078 111.98597 5597 ft 272 kts 135°
2026-04-20 13:15 16.88738 111.99970 5238 ft 269 kts 136°
2026-04-20 13:15 16.87411 112.01338 4898 ft 266 kts 136°
2026-04-20 13:16 16.86103 112.02693 4571 ft 263 kts 136°
2026-04-20 13:16 16.84814 112.04034 4231 ft 261 kts 137°
2026-04-20 13:16 16.83533 112.05370 3930 ft 259 kts 136°
2026-04-20 13:16 16.82265 112.06689 3616 ft 257 kts 136°
2026-04-20 13:17 16.81038 112.07966 3449 ft 245 kts 136°
2026-04-20 13:17 16.79855 112.09197 3365 ft 231 kts 136°
2026-04-20 13:17 16.78763 112.10332 3270 ft 219 kts 136°
2026-04-20 13:17 16.77708 112.11430 3176 ft 209 kts 136°
2026-04-20 13:18 16.76701 112.12480 3086 ft 200 kts 135°
2026-04-20 13:18 16.75733 112.13489 2996 ft 194 kts 135°
2026-04-20 13:18 16.74788 112.14474 2929 ft 187 kts 136°
2026-04-20 13:18 16.73906 112.15392 2833 ft 173 kts 136°
2026-04-20 13:19 16.73094 112.16237 2774 ft 158 kts 136°
2026-04-20 13:19 16.72348 112.17016 2719 ft 145 kts 137°
2026-04-20 13:19 16.71648 112.17746 2657 ft 140 kts 136°
2026-04-20 13:19 16.70967 112.18456 2592 ft 137 kts 135°
2026-04-20 13:20 16.70463 112.19294 2530 ft 138 kts 112°
2026-04-20 13:20 16.70349 112.20291 2472 ft 141 kts 87°
2026-04-20 13:20 16.70671 112.21266 2415 ft 145 kts 60°
2026-04-20 13:20 16.71354 112.22055 2345 ft 148 kts 49°
2026-04-20 13:21 16.72089 112.22816 2293 ft 149 kts 49°
2026-04-20 13:21 16.72821 112.23575 2232 ft 148 kts 49°
2026-04-20 13:21 16.73555 112.24336 2158 ft 149 kts 48°
2026-04-20 13:21 16.74292 112.25099 2098 ft 148 kts 49°
2026-04-20 13:22 16.75023 112.25853 2039 ft 147 kts 49°
2026-04-20 13:22 16.75748 112.26601 1934 ft 148 kts 50°
2026-04-20 13:22 16.76473 112.27354 1722 ft 145 kts 49°
2026-04-20 13:22 16.77183 112.28088 1517 ft 144 kts 49°
2026-04-20 13:23 16.77891 112.28823 1326 ft 144 kts 50°
2026-04-20 13:23 16.78599 112.29559 1132 ft 143 kts 50°
2026-04-20 13:23 16.79292 112.30280 959 ft 142 kts 50°
2026-04-20 13:23 16.79995 112.31006 714 ft 141 kts 50°
2026-04-20 13:24 16.80699 112.31730 509 ft 140 kts 49°
2026-04-20 13:24 16.81369 112.32440 383 ft 140 kts 49°
2026-04-20 13:24 16.82061 112.33147 203 ft 136 kts 49°
2026-04-20 13:24 16.82734 112.33854 39 ft 131 kts 47°
2026-04-20 13:25 16.83376 112.34583 273 ft 150 kts 50°
2026-04-20 13:25 16.84039 112.35466 910 ft 156 kts 73°
2026-04-20 13:25 16.84023 112.36620 1144 ft 173 kts 116°
2026-04-20 13:25 16.83147 112.37446 1330 ft 179 kts 161°
2026-04-20 13:26 16.81918 112.37352 1404 ft 184 kts 204°
2026-04-20 13:26 16.80933 112.36489 1459 ft 186 kts 222°
2026-04-20 13:26 16.80025 112.35506 1543 ft 191 kts 223°
2026-04-20 13:26 16.79114 112.34509 1509 ft 182 kts 223°
2026-04-20 13:27 16.78325 112.33550 1289 ft 170 kts 236°
2026-04-20 13:27 16.78118 112.32388 1044 ft 163 kts 282°
2026-04-20 13:27 16.78827 112.31558 823 ft 155 kts 343°
2026-04-20 13:27 16.79869 112.31409 713 ft 150 kts
2026-04-20 13:28 16.80811 112.31751 551 ft 140 kts 49°
2026-04-20 13:28 16.81455 112.32497 352 ft 142 kts 50°
2026-04-20 13:28 16.82142 112.33224 169 ft 137 kts 49°
2026-04-20 13:28 16.82803 112.33921 44 ft 130 kts 50°
2026-04-20 13:29 16.83223 112.34373 33 ft 18 kts 43°
2026-04-20 13:29 16.83259 112.34395 32 ft 1 kts 288°
2026-04-20 13:29 16.83239 112.34376 33 ft 9 kts 217°
2026-04-20 13:29 16.83234 112.34326 33 ft 5 kts 301°
2026-04-20 13:30 16.83259 112.34302 33 ft 5 kts 321°
2026-04-20 13:30 16.83288 112.34289 32 ft 4 kts 343°
2026-04-20 13:30 16.83306 112.34273 32 ft 2 kts 314°
2026-04-20 13:30 16.83313 112.34265 32 ft 1 kts 314°
2026-04-20 13:31 16.83314 112.34264 32 ft 0 kts 314°